Flag for France Weather past 2 weeks in Reims, France

Now
61 °F

Sunny.


Feels Like: 61 °F
Forecast: 47 / 65 °F
Wind: 9 mph from Southwest

Location: Chalons-Vatry

Current Time: May 29, 2015 at 8:42:35 PM

Latest Report: May 29, 2015 at 8:00 PM


Visibility: 10 mi

Pressure: 29.86 "Hg

Humidity: 63%

Dew point: 48 °F

Location of ReimsLocation

Historic Weather in Reims — Graph

°F

Reims temperature yesterday

Maximum temperature yesterday: 70 °F (at 4:00 PM)
Minimum temperature yesterday: 45 °F (at 4:00 AM)
Average temperature yesterday: 58 °F

Past Weeks' High & Low Weather Summary

 TemperatureHumidityPressure
High70 °F (May 24, 3:30 PM)100% (May 15, 1:30 AM)30.36 "Hg (May 15, 1:30 AM)
Low36 °F (May 21, 6:00 AM)37% (May 21, 6:30 PM)29.77 "Hg (May 18, 6:00 PM)
Average55 °F74%30.11 "Hg
* Reported May 14 7:00 PM — May 29 7:30 PM, Reims, Weather by CustomWeather, © 2015

Note: Actual official high and low records may vary slightly from our data, if they occured in-between our weather recording intervals... More about our weather records

Advertising

Reims weather history for previous 24 hours

 ConditionsComfort  
Time TempWeatherWind HumidityBarometerVisibility
7:30 PM
Fri, May 29
61 °FSunny.12 mph63%29.86 "Hg10 mi
7:00 PM63 °FSunny.13 mph59%29.86 "Hg10 mi
6:30 PM63 °FBroken clouds.13 mph56%29.86 "HgN/A
6:00 PM64 °FBroken clouds.17 mph52%29.86 "HgN/A
5:30 PM63 °FBroken clouds.13 mph59%29.89 "HgN/A
5:00 PM63 °FPartly sunny.16 mph56%29.89 "HgN/A
4:30 PM63 °FBroken clouds.16 mph59%29.89 "HgN/A
4:00 PM61 °FPartly sunny.14 mph68%29.89 "HgN/A
3:30 PM61 °FBroken clouds.14 mph68%29.89 "HgN/A
3:00 PM61 °FPartly sunny.16 mph63%29.89 "HgN/A
2:30 PM59 °FPartly sunny.14 mph72%29.89 "HgN/A
2:00 PM57 °FBroken clouds.9 mph77%29.92 "HgN/A
1:30 PM61 °FBroken clouds.8 mph72%29.92 "HgN/A
1:00 PM57 °FBroken clouds.2 mph82%29.92 "HgN/A
12:30 PM54 °FMore clouds than sun.5 mph88%29.92 "HgN/A
12:00 PM54 °FOvercast.5 mph88%29.92 "HgN/A
11:30 AM52 °FMore clouds than sun.5 mph94%29.92 "HgN/A
11:00 AM52 °FLight rain. Mostly cloudy.9 mph94%29.92 "HgN/A
10:30 AM52 °FLight rain. Partly sunny.5 mph94%29.92 "Hg6 mi
10:00 AM52 °FMostly cloudy.5 mph94%29.92 "HgN/A
9:30 AM52 °FLight rain. Fog.5 mph94%29.92 "Hg2 mi
9:00 AM52 °FMostly cloudy.6 mph88%29.92 "HgN/A
8:30 AM52 °FPartly sunny.5 mph88%29.92 "HgN/A
8:00 AM54 °FBroken clouds.3 mph88%29.92 "HgN/A
7:30 AM52 °FPartly cloudy.3 mph88%29.92 "HgN/A
7:00 AM50 °FPartly cloudy.3 mph94%29.92 "HgN/A
6:30 AM50 °FClear.6 mph82%29.92 "Hg10 mi
6:00 AM50 °FPassing clouds.5 mph82%29.95 "HgN/A
5:30 AM50 °FClear.3 mph88%29.95 "Hg10 mi
5:00 AM50 °FPassing clouds.3 mph88%29.95 "HgN/A
4:30 AM48 °FPartly cloudy.3 mph94%29.98 "HgN/A
4:00 AM50 °FClear.7 mph88%29.98 "Hg10 mi
3:30 AM54 °FClear.6 mph82%29.98 "Hg10 mi
3:00 AM54 °FClear.5 mph82%29.98 "Hg10 mi
2:30 AM54 °FClear.3 mph82%29.98 "Hg10 mi
2:00 AM54 °FClear.2 mph82%30.01 "Hg10 mi
1:30 AM54 °FClear.2 mph88%30.01 "Hg10 mi
1:00 AM55 °FPassing clouds.3 mph82%30.01 "HgN/A
12:00 AM55 °FPassing clouds.No wind82%30.01 "HgN/A
11:30 PM
Thu, May 28
57 °FBroken clouds.2 mph77%30.01 "HgN/A
11:00 PM57 °FBroken clouds.5 mph77%30.01 "HgN/A
10:30 PM57 °FPartly sunny.5 mph77%30.01 "HgN/A
10:00 PM59 °FBroken clouds.5 mph72%30.01 "HgN/A
9:30 PM59 °FSunny.3 mph72%30.01 "Hg10 mi
9:00 PM59 °FSunny.5 mph72%30.01 "Hg10 mi
8:30 PM61 °FSunny.6 mph68%30.01 "Hg10 mi
8:00 PM63 °FSunny.7 mph64%30.01 "Hg10 mi
Weather by CustomWeather, © 2015

See weather overviewHow to use our weather pages